TimeCDT,TemperatureF,Dew PointF,Humidity,Sea Level PressureIn,VisibilityMPH,Wind Direction,Wind SpeedMPH,Gust SpeedMPH,PrecipitationIn,Events,Conditions,WindDirDegrees,DateUTC
12:53 AM,61.0,57.9,90,30.05,10.0,SSE,3.5,-,N/A,,Clear,160,2013-07-25 05:53:00
1:53 AM,60.1,57.9,93,30.04,10.0,South,3.5,-,N/A,,Clear,180,2013-07-25 06:53:00
2:53 AM,61.0,59.0,93,30.05,10.0,SSW,5.8,-,N/A,,Clear,200,2013-07-25 07:53:00
3:53 AM,60.1,57.0,90,30.05,10.0,South,4.6,-,N/A,,Clear,190,2013-07-25 08:53:00
4:53 AM,59.0,57.0,93,30.05,10.0,South,4.6,-,N/A,,Clear,190,2013-07-25 09:53:00
5:53 AM,60.1,57.0,90,30.06,10.0,SSW,5.8,-,N/A,,Clear,200,2013-07-25 10:53:00
6:53 AM,62.1,57.9,86,30.07,10.0,South,6.9,-,N/A,,Clear,190,2013-07-25 11:53:00
7:53 AM,64.9,59.0,81,30.07,10.0,SW,4.6,-,N/A,,Clear,220,2013-07-25 12:53:00
8:53 AM,70.0,60.1,71,30.07,10.0,SW,6.9,-,N/A,,Clear,220,2013-07-25 13:53:00
9:53 AM,75.0,61.0,62,30.08,10.0,SW,5.8,-,N/A,,Clear,230,2013-07-25 14:53:00
10:53 AM,78.1,62.1,58,30.08,10.0,SSW,9.2,-,N/A,,Clear,200,2013-07-25 15:53:00
11:53 AM,80.1,62.1,54,30.07,10.0,Calm,Calm,-,N/A,,Partly Cloudy,0,2013-07-25 16:53:00
12:53 PM,80.1,60.1,50,30.06,10.0,WSW,5.8,-,N/A,,Partly Cloudy,240,2013-07-25 17:53:00
1:53 PM,80.1,60.1,50,30.05,10.0,SSW,8.1,-,N/A,,Partly Cloudy,200,2013-07-25 18:53:00
2:53 PM,82.0,61.0,49,30.02,10.0,SSE,8.1,-,N/A,,Clear,160,2013-07-25 19:53:00
3:53 PM,82.9,61.0,47,30.00,10.0,South,8.1,-,N/A,,Clear,180,2013-07-25 20:53:00
4:53 PM,82.9,60.1,46,29.99,10.0,South,8.1,-,N/A,,Clear,180,2013-07-25 21:53:00
5:53 PM,82.0,61.0,49,30.00,10.0,South,11.5,-,N/A,,Scattered Clouds,180,2013-07-25 22:53:00
6:53 PM,79.0,62.1,56,29.99,10.0,SSE,8.1,-,N/A,,Overcast,160,2013-07-25 23:53:00
7:53 PM,75.9,64.0,67,29.99,10.0,South,6.9,-,0.00,,Overcast,170,2013-07-26 00:53:00
8:53 PM,75.0,64.9,71,30.00,10.0,South,4.6,-,N/A,,Mostly Cloudy,180,2013-07-26 01:53:00
9:53 PM,73.9,64.9,73,30.01,10.0,SSW,5.8,-,N/A,,Scattered Clouds,210,2013-07-26 02:53:00
10:53 PM,73.0,64.9,76,30.00,10.0,South,5.8,-,N/A,,Mostly Cloudy,180,2013-07-26 03:53:00
11:53 PM,72.0,64.9,78,30.00,10.0,SW,4.6,-,N/A,,Overcast,220,2013-07-26 04:53:00